Regional Weather Roundup
Issued by NWS

Current Version | Previous Version | Text Only | Print | Product List | Glossary On
Versions: 1 2 3 4 5 6 7 8 9 10 11 12 13 14 15 16 17 18 19 20 21 22 23 24 25 26 27 28 29 30 31 32 33 34 35 36 37 38 39 40 41 42 43 44 45 46 47 48 49 50
000
ASUS42 KTBW 041717
RWRFL
FLORIDA REGIONAL WEATHER ROUNDUP
NATIONAL WEATHER SERVICE TAMPA BAY RUSKIN FL
100 PM EDT SAT JUL 04 2015

NOTE: "FAIR" INDICATES FEW OR NO CLOUDS BELOW 12,000 FEET WITH NO
SIGNIFICANT WEATHER AND/OR OBSTRUCTIONS TO VISIBILITY.


FLZ001>010-012>015-112-114-115-041800-
PANHANDLE FLORIDA

CITY           SKY/WX    TMP DP  RH WIND       PRES   REMARKS
PENSACOLA      MOSUNNY   80  71  74 NW8       30.09S THUNDER
PENSACOLA NAS  PTSUNNY   88  74  63 SW14G22   30.08F HX  96
MILTON NAS     PTSUNNY   84  70  62 S7        30.09F THUNDER
CRESTVIEW      PTSUNNY   90  74  59 SW12      30.10F HX  99
DUKE FIELD     PTSUNNY   86  69  56 W10G22    30.08F
VALPARAISO     PTSUNNY   88  75  65 S12       30.08F HX  98
MARY ESTHER    PTSUNNY   87  75  67 SW9       30.08  HX  96
TRI COUNTY     FAIR      82  71  69 W5        30.11S THUNDER
PANAMA CITY    FAIR      90  70  51 SW10      30.08F HX  95
TYNDALL AFB    MOSUNNY   87  77  72 SW10      30.10F HX  99
APALACHICOLA   SUNNY     91  75  59 S14       30.11F HX 101

STATION/POSITION SKY/WX   TEMP    WIND        PRES    WAVE   SWELL
                          AIR SEA DIR/SP/G            HT/PER HT/PER
                          (F)     (DEG/KT/KT) (MB)    (FT/S) (FT/S)
30.1N   87.6W              83 83  220/ 12/ 12 1018.1F   2/ 4   2/ 6
29.2N   88.2W              85 86  210/  8/ 10 1019.2F   2/ 4   2/ 6
28.8N   86.0W              84 86  200/  4/  4 1020.2S   2/ 6   2/ 6
PANAMA CITY BEAC           83 83  250/  6/  7 1019.4F
CAPE SAN BLAS    NOT AVBL
TOWER C                    83     240/  6/  7 1020.0F
28.5N   84.5W              85 86  210/  6/  8 1020.1F   2/ 4   2/ 4

$$
FLZ011-016>038-118-127-128-134-139-239-041800-
NORTH FLORIDA

CITY           SKY/WX    TMP DP  RH WIND       PRES   REMARKS
MARIANNA       PTSUNNY   85  76  74 S7        30.08F
TALLAHASSEE    PTSUNNY   92  72  51 SW12      30.10F HX  99
PERRY          MOSUNNY   88  72  58 S12       30.12F HX  95
CROSS CITY       N/A     80  69  69 VRB5G38   30.14R
LAKE CITY      FAIR      90  72  55 W7        30.11F HX  96
GAINESVILLE    TSTM      72  69  90 SW16G32   30.18R VSB 3/4
MAYPORT NAS    MOSUNNY   88  74  63 SE10      30.11F HX  96
JACKSONVILLE   MOSUNNY   88  68  51 MISG      30.10F
JAX NAS        TSTM      81  69  67 W14G29    30.13S
JAX CRAIG      MOSUNNY   91  71  51 W5        30.10F HX  97
JAX CECIL      PTSUNNY   90  73  58 SW7       30.11F HX  98
FERNANDINA BEA FAIR      90  73  58 SE12      30.10F HX  98
ST AUGUSTINE   MOSUNNY   89  73  59 E14       30.13F HX  97

STATION/POSITION SKY/WX   TEMP    WIND        PRES    WAVE   SWELL
                          AIR SEA DIR/SP/G            HT/PER HT/PER
                          (F)     (DEG/KT/KT) (MB)    (FT/S) (FT/S)
SHELL POINT                87     190/  7/ 11   N/A
KEATON BEACH               84     250/  7/  8 1020.3F
CEDAR KEY                  86     210/  7/  8 1020.5F
FERNANDINA                 85 78  250/  4/  6 1019.3F
30.7N   81.3W                 78                N/A     2/10
MAYPORT                    85 76  240/  4/  6 1020.5S
31.4N   80.9W              79 79  200/ 10/ 10 1019.8F   2/10   2/10
ST AUGUSTINE               77 73  110/ 10/ 11 1021.0F

$$
FLZ040-043>046-052-053-057-058-063-144-041800-
INTERIOR CENTRAL FLORIDA

CITY           SKY/WX    TMP DP  RH WIND       PRES   REMARKS
OCALA          MOSUNNY   91  68  46 S5        30.13F HX  95
THE VILLAGES     N/A    N/A N/A N/A VRB6      30.03F
LEESBURG       SUNNY     89  72  56 VRB6      30.15S HX  96
SANFORD        MOSUNNY   90  71  53 SE12      30.13F HX  96
ORLANDO EXEC   MOSUNNY   90  74  59 S3        30.13F HX  99
ORLANDO INTL   MOSUNNY   89  72  56 VRB3      30.13F HX  96
KISSIMMEE      MOSUNNY   88  75  66 CALM      30.14F HX  97
WINTER HAVEN   SUNNY     90  72  55 VRB5      30.15F HX  97
LAKELAND       MOSUNNY   90  73  58 S3        30.14F HX  98
OKEECHOBEE     SUNNY     88  73  62 S8        30.14S HX  96

$$
FLZ041-047-054-059-064-141-147-041800-
EAST CENTRAL FLORIDA

CITY           SKY/WX    TMP DP  RH WIND       PRES   REMARKS
ORMOND BEACH   MOSUNNY   88  70  55 E7        30.14R
DAYTONA BEACH  MOSUNNY   90  69  50 S6        30.14S
DELAND           N/A     90  68  48 CALM      30.15S
NEW SMYRNA BEA MOSUNNY   86  70  58 NE6       30.15S
JFK SPACE CTR  MOSUNNY   90  71  52 VRB6      30.12F HX  96
TITUSVILLE     MOSUNNY   88  73  62 E7        30.15S HX  96
CAPE CANAVERAL SUNNY     88  75  64 S12       30.13S HX  97
PATRICK AFB    SUNNY     85  76  73 E8        30.13F HX  95
MELBOURNE      TSTM      84  76  76 E10       30.14S
VERO BEACH     MOSUNNY   89  75  63 E14       30.13F HX  99
FT PIERCE      PTSUNNY   89  77  67 SE12      30.13F HX 101
STUART         MOSUNNY   82  73  74 CALM      30.15F

STATION/POSITION SKY/WX   TEMP    WIND        PRES    WAVE   SWELL
                          AIR SEA DIR/SP/G            HT/PER HT/PER
                          (F)     (DEG/KT/KT) (MB)    (FT/S) (FT/S)
28.5N   80.2W              83 82     CALM     1021.4R
28.9N   78.5W              83 84  160/  8/ 10 1021.5F
TRIDENT PIER               84 77  140/  5/  7 1021.4S
28.4N   80.5W                 80                N/A     2/ 8
27.5N   80.2W                 82                N/A     1/ 9

$$
FLZ050-056-061-142-242-148-248-149-249-151-251-155-255-
160-260-041800-
WEST CENTRAL FLORIDA

CITY           SKY/WX    TMP DP  RH WIND       PRES   REMARKS
CRYSTAL RIVER  FAIR      90  72  55 SW6       30.12F HX  96
INVERNESS      FAIR     N/A N/A N/A E3        30.14S
BROOKSVILLE    SUNNY     91  67  44 VRB3      30.14S
ZEPHYRHILLS    FAIR      90  66  45 CALM      30.14F
CLEARWATER     PTSUNNY   88  77  69 SE5       30.13S HX 100
TAMPA INTL     MOSUNNY   88  72  58 SW7       30.14S
TAMPA EXEC     MOSUNNY  N/A N/A N/A SW5       30.14S
PLANT CITY     PTSUNNY   91  72  52 CALM      30.15F HX  98
MACDILL AFB    MOSUNNY   91  78  66 SW5       30.13F HX 104
PETER O KNIGHT SUNNY     91  73  55 S5        30.14S HX 100
ST PETERSBURG  SUNNY     88  71  57 S7        30.12S
SARASOTA       SUNNY     91  70  49 SW9       30.11F HX  96
VENICE         FAIR      90  72  55 SW9       30.13F HX  96

STATION/POSITION SKY/WX   TEMP    WIND        PRES    WAVE   SWELL
                          AIR SEA DIR/SP/G            HT/PER HT/PER
                          (F)     (DEG/KT/KT) (MB)    (FT/S) (FT/S)
CEDAR KEY                  86     210/  7/  8 1020.5F
28.5N   84.5W              85 86  210/  6/  8 1020.1F   2/ 4   2/ 4
27.3N   84.2W                 88                N/A     2/ 4
CLEARWATER BEACH           84 87  230/  7/  9 1020.8R
MIDDLE TAMPA BAY                  280/  4/  5 1020.8R
VENICE                     86 88  210/  8/  9 1019.9R

$$
FLZ066-069-070-075>078-162-262-165-265-041800-
SOUTHWEST FLORIDA AND KEYS

CITY           SKY/WX    TMP DP  RH WIND       PRES   REMARKS
PUNTA GORDA    SUNNY     90  73  57 MISG      30.13F HX  98
FT MYERS       MOSUNNY   89  73  59 SE6       30.11F HX  97
SOUTHWEST INTL MOSUNNY   90  74  59 E7        30.12F HX  99
NAPLES         MOSUNNY   92  74  55 VRB6      30.11F HX 101
MARCO ISLAND   MOSUNNY   91  72  52 SE5       30.11F HX  98
MARATHON       MOSUNNY   91  78  65 E8        30.10F HX 106
KEY WEST NAS   SUNNY     90  76  63 E14       30.10S HX 101
KEY WEST INTL  MOSUNNY   90  78  68 SE13      30.11S HX 104

STATION/POSITION SKY/WX   TEMP    WIND        PRES    WAVE   SWELL
                          AIR SEA DIR/SP/G            HT/PER HT/PER
                          (F)     (DEG/KT/KT) (MB)    (FT/S) (FT/S)
VENICE                     86 88  210/  8/  9 1019.9R
NAPLES                        88              1021.0R
26.0N   85.6W              85 86  100/  6/  8 1019.4R   2/ 6   2/ 6
DRY TORTUGAS               85     120/ 11/ 12 1019.2R
NW FL BAY                  86     130/ 11/ 13 1019.7
SAND KEY                   85     110/ 13/ 15 1019.2F
SOMBRERO KEY               85      90/ 12/ 13 1020.0F
LONG KEY                   85 88  110/ 10/ 12 1020.4F
MOLASSES REEF              84 86  100/ 14/ 15 1019.7F

$$
FLZ067-068-071>074-168-172>174-041800-
SOUTHEAST FLORIDA

CITY           SKY/WX    TMP DP  RH WIND       PRES   REMARKS
W PALM BEACH   CLOUDY    84  76  76 E8        30.15S
FT LAUDER-EXEC PTSUNNY   85  74  69 E9        30.13F
FT LAUDERDALE  MOSUNNY   88  74  63 SE13      30.12F HX  96
POMPANO BEACH  CLOUDY    84  75  74 E6        30.13F
PEMBROKE PINES MOSUNNY   90  73  57 E14       30.13F HX  98
OPA LOCKA      PTSUNNY   90  75  61 E15       30.12F HX 100
MIAMI          MOSUNNY   90  71  53 SE12      30.12F HX  96
WEST KENDALL   SUNNY     90  74  59 SE14      30.12F HX  99
HOMESTEAD      MOSUNNY   89  74  60 E13       30.11F HX  98

STATION/POSITION SKY/WX   TEMP    WIND        PRES    WAVE   SWELL
                          AIR SEA DIR/SP/G            HT/PER HT/PER
                          (F)     (DEG/KT/KT) (MB)    (FT/S) (FT/S)
PORT EVERGLADES            80     140/  9/ 10 1020.3S
VIRGINIA KEY               85 88  120/  9/ 11 1020.2R
LAKE WORTH                 81 85  120/  3/  4 1020.4S


USA.gov is the U.S. government's official web portal to all federal, state and local government web resources and services.